QPF
0.00 0.00 0.00 0.00 0.00 0.00 0.00 0.00 0.00 0.00 0.00 0.00 0.00 0.00 0.00 0.00 0.00 0.00 0.00 0.00 0.00 0.00 0.00 0.00 0.00 0.00 0.00 0.00 0.00 0.00 0.00 0.00
0.00 0.00 0.00 0.00 0.00 0.00 0.00 0.00 0.00 0.00 0.00 0.00 0.00 0.00 0.00 0.00 0.00 0.00 0.00 0.00 0.00 0.00 0.00 0.00 0.00 0.00 0.00 0.00 0.00 0.00 0.00 0.00
0.00 0.00 0.00 0.00 0.00 0.00 0.00 0.00 0.00 0.00 0.00 0.00 0.00 0.00 0.00 0.00 0.00 0.00 0.00 0.00 0.00 0.00 0.00 0.00 0.00 0.00 0.00 0.00 0.00 0.00 0.00 0.00
0.00 0.00 0.00 0.00 0.00 0.00 0.00 0.00 0.00 0.00 0.00 0.00 0.00 0.01 0.00 0.00 0.00 0.00 0.00 0.00 0.01 0.01 0.00 0.00 0.00 0.00 0.00 0.00 0.00 0.00 0.00 0.00
0.00 0.00 0.00 0.00 0.00 0.00 0.00 0.00 0.00 0.00 0.00 0.00 0.00 0.00 0.00 0.00 0.00 0.00 0.00 0.00 0.00 0.00 0.01 0.00 0.00 0.00 0.00 0.01 0.01 0.01 0.00 0.00
0.00 0.00 0.00 0.00 0.00 0.00 0.00 0.00 0.00 0.00 0.00 0.00 0.00 0.00 0.00 0.00 0.00 0.00 0.00 0.00 0.00 0.00 0.00 0.01 0.01 0.01 0.00 0.00 0.01 0.01 0.01 0.00
0.00 0.00 0.00 0.00 0.00 0.00 0.00 0.00 0.00 0.00 0.00 0.00 0.00 0.00 0.00 0.00 0.00 0.00 0.00 0.00 0.00 0.00 0.00 0.00 0.01 0.00 0.00 0.01 0.00 0.00 0.01 0.01
0.00 0.00 0.00 0.00 0.00 0.00 0.00 0.00 0.00 0.00 0.00 0.00 0.00 0.00 0.00 0.00 0.00 0.00 0.00 0.00 0.00 0.00 0.00 0.00 0.00 0.00 0.00 0.01 0.01 0.01 0.01 0.01
0.00 0.00 0.00 0.00 0.00 0.00 0.00 0.00 0.00 0.00 0.00 0.00 0.01 0.03 0.01 0.00 0.00 0.00 0.00 0.00 0.00 0.00 0.00 0.00 0.00 0.00 0.00 0.00 0.00 0.01 0.01 0.01
0.01 0.01 0.01 0.00 0.00 0.00 0.00 0.00 0.00 0.00 0.01 0.01 0.05 0.06 0.03 0.01 0.00 0.00 0.00 0.00 0.00 0.00 0.00 0.00 0.00 0.00 0.00 0.00 0.00 0.00 0.00 0.01
0.06 0.06 0.05 0.04 0.02 0.01 0.01 0.01 0.01 0.00 0.00 0.00 0.01 0.05 0.04 0.02 0.00 0.00 0.00 0.00 0.00 0.00 0.00 0.00 0.00 0.00 0.00 0.00 0.00 0.00 0.01 0.01
0.12 0.09 0.04 0.02 0.02 0.01 0.00 0.00 0.00 0.00 0.00 0.00 0.00 0.01 0.02 0.01 0.00 0.00 0.01 0.01 0.00 0.00 0.00 0.00 0.00 0.00 0.01 0.01 0.00 0.00 0.00 0.02
0.09 0.03 0.01 0.00 0.00 0.00 0.00 0.00 0.00 0.00 0.00 0.00 0.00 0.00 0.01 0.05 0.03 0.00 0.00 0.00 0.01 0.00 0.00 0.00 0.00 0.00 0.00 0.01 0.01 0.01 0.00 0.00
0.03 0.00 0.00 0.00 0.00 0.00 0.00 0.00 0.00 0.00 0.00 0.00 0.00 0.00 0.01 0.02 0.03 0.02 0.02 0.00 0.00 0.00 0.00 0.00 0.00 0.00 0.00 0.00 0.00 0.00 0.00 0.00
0.00 0.00 0.00 0.00 0.00 0.00 0.00 0.00 0.00 0.00 0.00 0.00 0.00 0.00 0.01 0.02 0.02 0.02 0.02 0.00 0.00 0.00 0.00 0.00 0.00 0.00 0.00 0.00 0.00 0.00 0.00 0.00
0.00 0.00 0.00 0.00 0.00 0.00 0.00 0.00 0.00 0.00 0.00 0.00 0.00 0.00 0.00 0.01 0.01 0.01 0.00 0.00 0.00 0.00 0.00 0.00 0.00 0.00 0.00 0.00 0.00 0.00 0.00 0.01
0.00 0.00 0.00 0.00 0.00 0.00 0.00 0.00 0.00 0.00 0.00 0.00 0.00 0.00 0.00 0.01 0.01 0.01 0.01 0.00 0.00 0.00 0.00 0.00 0.00 0.00 0.00 0.00 0.00 0.00 0.00 0.00
0.00 0.00 0.00 0.00 0.00 0.00 0.00 0.00 0.00 0.00 0.00 0.00 0.00 0.00 0.00 0.00 0.01 0.01 0.01 0.01 0.00 0.00 0.00 0.00 0.00 0.00 0.00 0.00 0.00 0.00 0.00 0.00
0.00 0.00 0.00 0.00 0.00 0.00 0.00 0.00 0.00 0.00 0.00 0.00 0.00 0.00 0.00 0.00 0.00 0.00 0.00 0.01 0.00 0.00 0.00 0.00 0.00 0.00 0.00 0.00 0.00 0.00 0.00 0.00
MSLP
998.64 999.21 999.67 999.77 1000.06 1000.61 1001.18 1001.69 1002.32 1003.32 1004.43 1005.59 1006.19 1006.77 1007.25 1007.63 1008.15 1008.76 1009.26 1009.92 1010.52 1011.12 1011.89 1012.57 1013.06 1013.81 1014.34 1014.82 1015.17 1015.66 1016.08 1016.72
998.76 998.52 997.99 998.79 998.82 999.58 1000.03 1000.96 1001.58 1002.76 1004.04 1004.91 1005.79 1006.02 1006.70 1007.27 1007.71 1008.03 1008.69 1009.38 1010.13 1010.86 1011.55 1012.21 1012.93 1013.47 1014.06 1014.64 1015.29 1015.68 1016.30 1016.69
998.69 998.24 997.83 997.31 997.75 998.43 999.01 999.73 1000.51 1001.50 1002.58 1003.26 1004.33 1005.10 1005.96 1006.65 1007.38 1007.81 1008.21 1008.94 1009.60 1010.35 1011.00 1011.69 1012.50 1013.15 1013.93 1014.36 1014.74 1015.59 1016.07 1016.19
997.83 997.69 997.52 997.13 997.09 997.38 997.97 998.59 999.53 1000.35 1001.49 1002.89 1004.15 1005.36 1006.25 1006.92 1007.18 1007.48 1007.90 1008.29 1008.98 1009.74 1010.51 1011.18 1012.01 1012.55 1013.16 1013.90 1014.33 1014.80 1015.35 1015.98
997.26 997.15 997.19 996.97 996.55 996.40 996.84 997.62 998.71 999.65 1000.72 1001.99 1002.84 1003.63 1004.70 1005.08 1005.91 1006.72 1007.37 1007.91 1008.66 1009.24 1010.04 1010.76 1011.36 1012.07 1012.59 1013.23 1013.82 1014.14 1014.69 1015.24
996.66 996.55 996.54 996.26 996.39 996.22 996.46 997.08 998.13 998.98 999.84 1000.86 1001.98 1003.15 1003.72 1004.64 1005.67 1006.39 1006.95 1007.27 1008.15 1008.92 1009.62 1010.31 1010.80 1011.46 1011.99 1012.62 1013.20 1013.56 1013.94 1014.39
995.80 995.71 996.00 996.59 996.55 997.17 996.67 997.03 997.83 998.71 999.49 1000.44 1001.33 1002.33 1003.41 1004.54 1005.38 1006.03 1006.56 1006.98 1007.85 1008.47 1009.08 1009.75 1010.27 1010.82 1011.26 1011.87 1012.52 1012.89 1013.22 1013.70
994.63 995.30 996.31 997.31 997.41 997.40 998.05 998.01 998.60 999.20 999.88 1000.55 1001.24 1002.00 1002.85 1003.72 1004.56 1005.28 1005.98 1006.68 1007.40 1007.91 1008.60 1009.25 1009.77 1010.28 1010.75 1011.31 1011.79 1012.41 1012.72 1013.10
996.81 996.53 998.10 998.62 998.55 998.49 998.40 998.65 999.27 999.83 1000.38 1000.84 1001.32 1002.05 1002.69 1003.36 1003.98 1004.60 1005.11 1005.67 1006.37 1007.08 1007.96 1008.62 1009.25 1009.81 1010.27 1010.74 1011.19 1011.66 1012.13 1012.40
997.73 997.83 998.84 999.41 999.30 999.49 999.45 999.73 1000.15 1000.51 1000.89 1001.36 1001.69 1002.16 1002.54 1003.00 1003.67 1004.11 1004.58 1005.13 1005.84 1006.62 1007.29 1008.11 1008.72 1009.35 1009.76 1010.30 1010.63 1011.00 1011.36 1011.65
998.12 998.94 999.45 1000.08 1000.50 1000.46 1000.85 1000.99 1001.30 1001.44 1001.53 1001.69 1001.84 1002.17 1002.52 1002.57 1003.29 1003.84 1004.34 1004.86 1005.60 1006.21 1006.90 1007.40 1008.00 1008.58 1009.05 1009.63 1010.09 1010.38 1010.68 1010.82
999.91 1000.50 1001.17 1001.30 1002.11 1001.41 1002.34 1002.27 1002.35 1002.21 1002.11 1002.28 1002.25 1002.22 1002.04 1002.37 1002.90 1003.56 1004.00 1004.62 1005.19 1005.99 1006.53 1007.11 1007.70 1008.18 1008.68 1009.09 1009.35 1009.68 1009.90 1010.18
1001.00 1001.65 1002.32 1001.84 1002.78 1003.04 1003.63 1003.53 1002.95 1002.96 1002.83 1002.66 1002.59 1002.56 1002.47 1002.63 1002.84 1003.61 1003.71 1004.59 1005.07 1005.72 1006.38 1006.92 1007.31 1007.81 1008.24 1008.58 1008.85 1009.10 1009.15 1009.47
1001.63 1002.14 1003.28 1003.10 1003.71 1004.46 1004.22 1003.82 1003.84 1003.83 1003.44 1003.09 1003.13 1003.06 1003.06 1003.26 1003.35 1003.66 1004.01 1004.58 1005.15 1005.69 1006.10 1006.74 1007.25 1007.73 1008.14 1008.44 1008.60 1008.75 1008.75 1008.73
1002.02 1003.80 1004.38 1004.74 1004.85 1005.52 1005.49 1005.37 1005.31 1005.13 1004.80 1004.42 1004.16 1003.98 1003.70 1003.63 1003.42 1003.71 1004.20 1004.56 1005.24 1005.51 1005.98 1006.56 1007.01 1007.47 1007.85 1008.13 1008.31 1008.41 1008.46 1008.40
1004.68 1005.35 1005.03 1006.46 1006.72 1006.56 1006.62 1006.59 1006.43 1006.24 1005.98 1005.84 1005.57 1005.06 1004.60 1004.05 1003.76 1003.56 1003.89 1004.40 1004.87 1005.30 1005.88 1006.33 1006.72 1007.20 1007.54 1007.78 1007.91 1008.01 1008.10 1007.96
1006.48 1006.35 1007.09 1008.53 1008.25 1007.87 1007.98 1007.89 1007.63 1007.49 1007.24 1007.03 1006.78 1006.05 1005.44 1005.04 1004.73 1004.36 1004.33 1004.60 1004.73 1005.30 1005.67 1006.09 1006.46 1006.84 1007.17 1007.38 1007.53 1007.70 1007.70 1007.67
1008.36 1008.61 1009.11 1009.13 1009.17 1009.25 1009.30 1008.81 1008.35 1008.13 1008.24 1008.09 1007.71 1007.28 1006.71 1006.30 1005.84 1005.14 1004.64 1004.55 1004.78 1005.11 1005.47 1005.77 1006.12 1006.48 1006.84 1006.97 1007.30 1007.44 1007.42 1007.48
1009.97 1010.30 1010.66 1010.74 1010.73 1010.35 1009.94 1009.60 1009.52 1009.21 1009.07 1008.98 1008.75 1008.27 1007.89 1007.47 1006.80 1006.47 1005.65 1005.10 1004.87 1004.93 1005.13 1005.49 1005.95 1006.29 1006.44 1006.77 1007.07 1007.30 1007.46 1007.83
Thickness
5711 5716 5716 5720 5720 5727 5727 5728 5731 5728 5722 5712 5709 5707 5705 5704 5700 5695 5691 5686 5681 5676 5670 5664 5659 5651 5647 5643 5640 5636 5633 5629
5695 5706 5718 5715 5720 5723 5724 5722 5724 5722 5715 5709 5703 5705 5700 5699 5697 5694 5689 5684 5678 5672 5667 5662 5657 5651 5645 5640 5634 5630 5625 5623
5676 5689 5701 5716 5720 5719 5724 5724 5721 5723 5718 5716 5707 5704 5699 5696 5692 5690 5686 5682 5675 5672 5666 5661 5656 5650 5642 5637 5634 5625 5621 5621
5669 5680 5688 5700 5712 5718 5721 5724 5723 5722 5718 5709 5700 5693 5688 5685 5686 5684 5683 5680 5674 5668 5664 5659 5654 5650 5643 5636 5632 5628 5621 5616
5663 5674 5680 5689 5704 5716 5722 5723 5719 5717 5714 5707 5703 5700 5692 5694 5688 5683 5679 5676 5671 5667 5662 5657 5653 5648 5644 5637 5631 5627 5622 5616
5654 5663 5673 5689 5697 5706 5715 5718 5713 5712 5711 5708 5702 5695 5695 5688 5681 5676 5674 5675 5669 5664 5659 5655 5651 5647 5643 5637 5630 5626 5622 5618
5652 5660 5672 5671 5680 5686 5699 5705 5706 5706 5705 5702 5698 5693 5686 5679 5675 5672 5671 5669 5664 5661 5657 5653 5649 5646 5643 5638 5630 5625 5621 5617
5657 5654 5657 5661 5669 5675 5677 5686 5688 5691 5692 5691 5690 5688 5683 5678 5674 5671 5667 5663 5660 5658 5654 5649 5646 5643 5639 5635 5630 5623 5618 5615
5627 5640 5638 5643 5651 5659 5665 5671 5675 5678 5678 5678 5680 5677 5674 5672 5670 5669 5667 5665 5661 5658 5652 5648 5643 5639 5636 5632 5628 5623 5617 5614
5619 5627 5627 5630 5639 5645 5653 5657 5659 5661 5663 5665 5666 5665 5664 5665 5663 5663 5664 5662 5658 5654 5649 5644 5639 5635 5632 5628 5625 5621 5617 5613
5615 5616 5617 5618 5621 5629 5631 5636 5639 5643 5648 5653 5656 5655 5656 5659 5656 5657 5656 5654 5652 5649 5644 5641 5637 5633 5630 5625 5621 5619 5615 5613
5594 5593 5594 5599 5598 5610 5608 5614 5619 5627 5635 5638 5642 5646 5650 5651 5651 5649 5649 5647 5646 5642 5640 5635 5632 5628 5624 5621 5619 5615 5613 5610
5583 5581 5580 5587 5584 5587 5588 5594 5606 5612 5620 5626 5630 5635 5639 5640 5642 5639 5643 5639 5638 5635 5632 5628 5627 5623 5620 5617 5614 5612 5611 5606
5572 5572 5569 5573 5571 5569 5577 5586 5591 5596 5606 5615 5619 5623 5626 5627 5629 5630 5630 5630 5628 5626 5625 5621 5618 5615 5612 5610 5608 5606 5605 5603
5564 5553 5553 5553 5558 5556 5559 5566 5572 5577 5583 5591 5598 5604 5612 5615 5619 5620 5619 5620 5617 5618 5616 5612 5612 5608 5606 5604 5602 5601 5599 5597
5537 5536 5542 5534 5536 5543 5545 5550 5556 5561 5566 5570 5576 5584 5593 5602 5608 5613 5612 5611 5610 5610 5607 5606 5604 5601 5600 5598 5598 5596 5593 5592
5515 5525 5522 5509 5515 5524 5528 5532 5538 5543 5549 5553 5558 5568 5577 5584 5589 5597 5601 5602 5603 5601 5600 5599 5597 5596 5593 5591 5591 5590 5589 5587
5489 5493 5493 5499 5504 5508 5510 5519 5527 5532 5535 5539 5544 5550 5558 5564 5571 5581 5591 5595 5594 5593 5593 5592 5591 5590 5586 5586 5583 5585 5584 5582
5476 5474 5473 5480 5485 5493 5502 5508 5512 5517 5521 5526 5529 5535 5541 5547 5555 5560 5570 5579 5587 5587 5587 5585 5584 5583 5580 5579 5577 5580 5577 5573